Change the Weather History Date:

Sunday, November 6, 2011

  Actual Average Record
Temperature  
Mean Temperature 50 °F -  
Max Temperature 53 °F 45 °F 67 °F (1975)
Min Temperature 46 °F 32 °F 6 °F (1951)
Degree Days  
Heating Degree Days 16    
Moisture  
Dew Point 44 °F    
Average Humidity 77    
Maximum Humidity 87    
Minimum Humidity 58    
Precipitation  
Precipitation 0.00 in - - ()
Sea Level Pressure  
Sea Level Pressure 29.93 in    
Wind  
Wind Speed 14 mph (South)    
Max Wind Speed 20 mph    
Max Gust Speed 28 mph    
Visibility 10 miles    
Events      
Averages and records for this station are not official NWS values.
T = Trace of Precipitation, MM = Missing Value Source: NWS Daily Summary

Daily Weather History Graph

Daily Weather History Graph

Search for Another Location

Airport or City:

Trip Planner

Search our weather history database for the weather conditions in past years. The results will help you decide how hot, cold, wet, or windy it might be!

Date:

Astronomy

Nov. 06, 2011 Rise Set
Actual Time 6:34 AM CST 4:31 PM CST
Civil Twilight 6:03 AM CST 5:02 PM CST
Nautical Twilight 5:28 AM CST 5:37 PM CST
Astronomical Twilight 4:54 AM CST 6:11 PM CST
Moon 2:22 PM CST (11/6) 2:31 AM CST (11/6)
Length of Visible Light 10h 59m
Length of Day
9h 57m
Waxing Gibbous, 86% of the Moon is Illuminated
Nov 6
Waxing Gibbous
Nov 10
Full
Nov 18
Last Quarter
Nov 25
New
Dec 2
First Quarter

Hourly Weather History & Observations

Time (CST) Temp. Windchill Dew Point Humidity Pressure Visibility Wind Dir Wind Speed Gust Speed Precip Events Conditions
12:15 AM - - - N/A% 30.02 in 10.0 mi South 16.1 mph 23.0 mph N/A   Clear
12:35 AM - - - N/A% 30.02 in 10.0 mi South 15.0 mph 20.7 mph N/A   Clear
12:55 AM 48.2 °F - 39.2 °F 71% 30.03 in 10.0 mi South 15.0 mph 19.6 mph N/A   Clear
1:15 AM - - - N/A% 30.02 in 10.0 mi South 12.7 mph 19.6 mph N/A   Clear
1:35 AM - - - N/A% 30.03 in 10.0 mi South 12.7 mph - N/A   Clear
1:35 AM - - - N/A% 30.01 in 10.0 mi South 12.7 mph - N/A   Clear
1:55 AM - - - N/A% 30.00 in 10.0 mi South 12.7 mph 20.7 mph N/A   Clear
2:15 AM - - - N/A% 30.00 in 10.0 mi South 13.8 mph - N/A   Clear
2:35 AM - - - N/A% 29.99 in 10.0 mi South 13.8 mph 20.7 mph N/A   Clear
2:55 AM - - - N/A% 29.98 in 10.0 mi South 13.8 mph - N/A   Clear
3:15 AM - - - N/A% 29.99 in 10.0 mi South 12.7 mph 19.6 mph N/A   Clear
3:35 AM - - - N/A% 29.98 in 10.0 mi South 16.1 mph - N/A   Clear
4:35 AM - - - N/A% 29.97 in 10.0 mi South 15.0 mph - N/A   Clear
4:55 AM - - - N/A% 29.97 in 10.0 mi South 12.7 mph 18.4 mph N/A   Clear
5:15 AM 48.2 °F - 42.8 °F 82% 29.97 in 10.0 mi South 13.8 mph 19.6 mph N/A   Clear
5:35 AM 48.2 °F - 42.8 °F 82% 29.97 in 10.0 mi South 12.7 mph 18.4 mph N/A   Clear
5:55 AM 48.2 °F - 41.0 °F 76% 29.96 in 10.0 mi South 9.2 mph - N/A   Clear
6:15 AM 48.2 °F - 41.0 °F 76% 29.96 in 10.0 mi SSE 10.4 mph - N/A   Clear
6:35 AM 46.4 °F 40.7 °F 41.0 °F 81% 29.95 in 10.0 mi SSE 12.7 mph 16.1 mph N/A   Clear
7:35 AM 48.2 °F - 42.8 °F 82% 29.95 in 10.0 mi South 13.8 mph 19.6 mph N/A   Clear
7:55 AM 50.0 °F - 42.8 °F 76% 29.94 in 10.0 mi South 15.0 mph - N/A   Clear
8:15 AM 50.0 °F - 42.8 °F 76% 29.94 in 10.0 mi South 13.8 mph 21.9 mph N/A   Clear
8:35 AM 51.8 °F - 42.8 °F 71% 29.93 in 10.0 mi South 19.6 mph 24.2 mph N/A   Clear
8:55 AM 51.8 °F - 44.6 °F 76% 29.93 in 10.0 mi South 17.3 mph 23.0 mph N/A   Clear
9:15 AM 51.8 °F - 44.6 °F 76% 29.92 in 10.0 mi South 16.1 mph 19.6 mph N/A   Partly Cloudy
9:35 AM 53.6 °F - 44.6 °F 72% 29.92 in 10.0 mi South 12.7 mph 23.0 mph N/A   Mostly Cloudy
10:15 AM 51.8 °F - 44.6 °F 76% 29.91 in 10.0 mi South 17.3 mph 23.0 mph N/A   Clear
10:35 AM 53.6 °F - 44.6 °F 72% 29.90 in 10.0 mi South 16.1 mph 23.0 mph N/A   Clear
10:55 AM 53.6 °F - 46.4 °F 77% 29.90 in 10.0 mi South 17.3 mph 20.7 mph N/A   Clear
11:15 AM 53.6 °F - 44.6 °F 72% 29.88 in 10.0 mi South 13.8 mph - N/A   Clear
12:15 PM 53.6 °F - 46.4 °F 77% 29.86 in 10.0 mi South 13.8 mph - N/A   Partly Cloudy
12:35 PM 53.6 °F - 46.4 °F 77% 29.85 in 10.0 mi South 18.4 mph 23.0 mph N/A   Clear
12:55 PM 53.6 °F - 46.4 °F 77% 29.85 in 10.0 mi South 16.1 mph 27.6 mph N/A   Partly Cloudy
1:15 PM 53.6 °F - 46.4 °F 77% 29.86 in 10.0 mi South 15.0 mph 20.7 mph N/A   Mostly Cloudy
1:35 PM 51.8 °F - 46.4 °F 82% 29.87 in 10.0 mi South 11.5 mph 19.6 mph N/A   Overcast
1:55 PM 53.6 °F - 46.4 °F 77% 29.86 in 10.0 mi South 11.5 mph - N/A   Overcast
2:15 PM 53.6 °F - 48.2 °F 82% 29.84 in 9.0 mi South 12.7 mph - N/A   Mostly Cloudy
2:35 PM 53.6 °F - 46.4 °F 77% 29.85 in 10.0 mi South 15.0 mph 18.4 mph N/A   Mostly Cloudy
2:55 PM 53.6 °F - 46.4 °F 77% 29.86 in 10.0 mi South 12.7 mph 19.6 mph N/A   Overcast
3:55 PM 53.6 °F - 46.4 °F 77% 29.86 in 10.0 mi South 11.5 mph - N/A   Overcast
4:15 PM 53.6 °F - 46.4 °F 77% 29.87 in 10.0 mi South 13.8 mph - N/A   Overcast
4:35 PM 51.8 °F - 46.4 °F 82% 29.86 in 9.0 mi South 13.8 mph - N/A   Mostly Cloudy
4:55 PM 51.8 °F - 46.4 °F 82% 29.87 in 9.0 mi South 12.7 mph - N/A   Partly Cloudy
5:15 PM - - - N/A% 29.87 in 10.0 mi South 13.8 mph 19.6 mph N/A   Scattered Clouds
5:35 PM 51.8 °F - 46.4 °F 82% 29.87 in 10.0 mi South 13.8 mph - N/A   Scattered Clouds
6:15 PM 51.8 °F - 46.4 °F 82% 29.89 in 10.0 mi South 15.0 mph 20.7 mph N/A   Clear
6:55 PM 50.0 °F - 46.4 °F 87% 29.89 in 8.0 mi South 13.8 mph 18.4 mph N/A   Clear
7:15 PM 50.0 °F - 46.4 °F 87% 29.89 in 9.0 mi South 12.7 mph - N/A   Clear
7:35 PM - - - N/A% 29.89 in 9.0 mi South 10.4 mph - N/A   Clear
8:15 PM - - - N/A% 29.89 in 8.0 mi South 10.4 mph - N/A   Clear
8:35 PM - - - N/A% 29.90 in 8.0 mi SSW 9.2 mph - N/A   Clear
8:55 PM - - - N/A% 29.91 in 7.0 mi SSW 10.4 mph - N/A   Clear
9:15 PM - - - N/A% 29.92 in 7.0 mi SSW 10.4 mph - N/A   Clear
9:35 PM - - - N/A% 29.94 in 10.0 mi SW 12.7 mph - N/A   Clear
9:55 PM - - - N/A% 29.96 in 10.0 mi WSW 19.6 mph 25.3 mph N/A   Clear
10:15 PM - - - N/A% 29.96 in 10.0 mi WSW 18.4 mph 26.5 mph N/A   Clear
10:35 PM 50.0 °F - 35.6 °F 58% 29.98 in 10.0 mi WSW 17.3 mph 25.3 mph N/A   Clear
10:55 PM 50.0 °F - 35.6 °F 58% 29.98 in 10.0 mi WSW 15.0 mph 23.0 mph N/A   Clear